Terug naar catalogus

BLOCK DM-SL R/B

ActiefHEO
NORAD 25938·ROCKET BODY· XX

Gelanceerd Oct 10, 1999 vanaf Sea Launch Platform

Loading…

Volgende Passages (komende 24 uur)

TLE

VersSource: Space-Track

Epoch: Sep 14, 2026, 09:17 UTC

1 25938U 99056B   26257.38733828 -.00000108  00000-0  00000-0 0  9990
2 25938   0.9118 348.9708 6465538 124.9086 324.1396  2.12161840208704

Volg BLOCK DM-SL R/B in realtime met AllMySat

Download on the App Store